STARLINK-11634 [DTC] (63673 NORAD) Tracking and Keplerian Element Data

This shows tracking and keplerian element data for the satellite.

Feedback or suggestion? Click here.




ElementValue
Catalog63673
NameSTARLINK-11634 [DTC]
Epoch Orbit3773
Epoch Day354.1547243
Epoch Year2025
RAAN37.7735
Inclination43.0026
Eccentricity0.0002746
Argument of Perigee286.599
Mean Anonmoly73.4576
Mean Motion15.70982607
Decay Rate0.0014702
L11 63673U 25085K 25354.15472430 .00147020 00000+0 11223-2 0 9994
L22 63673 43.0026 37.7735 0002746 286.5990 73.4576 15.70982607 37739



Live tracking and technical data element details for STARLINK-11634 [DTC] (NORAD 63673). STARLINK-11634 [DTC] can be tracked NOW for your location showing map with azimuth and elevation plus other details from your city location.







IsCatalogInMostPopularTable: catalog: 63673, numindb: 7
Update: records affected: 1



GetName: 63673 STARLINK-11634 [DTC]

Hit Count: updated at: Tue, 21 Apr 2026 20:01:48 GMT